Location: Casilda
(33.0440°S, 61.1680°W)
Time: 19:13:08
(UTC-03:00)

ISS - Visible Passes

Search period start: 25 September 2017 00:00
Search period end: 05 October 2017 00:00
Orbit: 401 x 407 km, 51.6° (Epoch: 26 September)

Date Brightness Start Highest point End Pass type
(mag) Time Alt. Az. Time Alt. Az. Time Alt. Az.
27 Sep -0.6 06:01:24 10° NE 06:02:31 11° NE 06:03:38 10° ENE visible
29 Sep -2.1 05:51:00 10° NNW 05:53:58 31° NE 05:56:58 10° ESE visible
30 Sep -1.1 05:00:25 12° NNE 05:01:45 15° NE 05:03:42 10° E visible
01 Oct -3.9 05:43:21 20° NW 05:45:31 84° SW 05:48:51 10° SE visible
02 Oct -2.7 04:53:26 40° ENE 04:53:26 40° ENE 04:56:20 10° ESE visible
03 Oct -2.7 05:36:02 24° WSW 05:37:11 30° SW 05:40:11 10° SSE visible
04 Oct -2.4 04:45:51 35° SSE 04:45:51 35° SSE 04:48:00 10° SE visible
